Tiempo cada hora Barsukovskaya

Hoy, 7 Marzo, Domingo

Tiempo Temperatura Precipitaciones Viento Presión Humedad
00:00 -2°C° 0.3 mm 7 mps 737 mmHg 96%
01:00 -3°C° 0.8 mm 7 mps 738 mmHg 96%
02:00 -4°C° 0.8 mm 7 mps 739 mmHg 95%
03:00 -6°C° 0 mm 7 mps 740 mmHg 94%
04:00 -6°C° 0.3 mm 5 mps 741 mmHg 93%
05:00 -5°C° 0.3 mm 4 mps 741 mmHg 92%
06:00 -5°C° 0.3 mm 2 mps 742 mmHg 91%
07:00 -4°C° 0 mm 2 mps 742 mmHg 89%
08:00 -4°C° 0 mm 2 mps 742 mmHg 86%
09:00 -2°C° 0 mm 1 mps 743 mmHg 81%
10:00 -1°C° 0 mm 1 mps 742 mmHg 75%
11:00 0°C° 0 mm 1 mps 742 mmHg 69%
12:00 0°C° 0 mm 1 mps 742 mmHg 63%
13:00 0°C° 0 mm 1 mps 741 mmHg 61%
14:00 +1°C° 0 mm 1 mps 741 mmHg 60%
15:00 +1°C° 0 mm 1 mps 740 mmHg 58%
16:00 0°C° 0 mm 1 mps 740 mmHg 62%
17:00 -1°C° 0 mm 1 mps 740 mmHg 67%
18:00 -1°C° 0 mm 1 mps 740 mmHg 71%
19:00 -2°C° 0 mm 1 mps 740 mmHg 72%
20:00 -2°C° 0 mm 1 mps 740 mmHg 73%
21:00 -2°C° 0 mm 1 mps 740 mmHg 74%
22:00 -2°C° 0 mm 1 mps 740 mmHg 73%
23:00 -3°C° 0 mm 1 mps 740 mmHg 73%

Mañana, 8 Marzo, Lunes

Tiempo Temperatura Precipitaciones Viento Presión Humedad
00:00 -3°C° 0 mm 1 mps 740 mmHg 73%
01:00 -3°C° 0 mm 1 mps 740 mmHg 74%
02:00 -3°C° 0 mm 1 mps 740 mmHg 74%
03:00 -3°C° 0 mm 1 mps 739 mmHg 75%
04:00 -3°C° 0 mm 1 mps 739 mmHg 75%
05:00 -3°C° 0 mm 1 mps 739 mmHg 75%
06:00 -3°C° 0 mm 1 mps 739 mmHg 75%
07:00 -2°C° 0 mm 1 mps 739 mmHg 71%
08:00 -1°C° 0 mm 1 mps 739 mmHg 67%
09:00 0°C° 0 mm 1 mps 738 mmHg 63%
10:00 -1°C° 0 mm 2 mps 738 mmHg 63%
11:00 +1°C° 0 mm 2 mps 738 mmHg 63%
12:00 +1°C° 0 mm 2 mps 737 mmHg 62%
13:00 +2°C° 0 mm 2 mps 737 mmHg 62%
14:00 +2°C° 0 mm 2 mps 737 mmHg 63%
15:00 +1°C° 0 mm 3 mps 736 mmHg 63%
16:00 +2°C° 0 mm 2 mps 736 mmHg 68%
17:00 +1°C° 0 mm 2 mps 736 mmHg 73%
18:00 -1°C° 0 mm 2 mps 736 mmHg 77%
19:00 -1°C° 0 mm 2 mps 736 mmHg 78%
20:00 -1°C° 0 mm 2 mps 737 mmHg 79%
21:00 -1°C° 0 mm 2 mps 737 mmHg 79%
22:00 -2°C° 0 mm 2 mps 737 mmHg 81%
23:00 -2°C° 0 mm 2 mps 737 mmHg 82%

Pasado mañana, 9 Marzo, Martes

Tiempo Temperatura Precipitaciones Viento Presión Humedad
00:00 -2°C° 0 mm 2 mps 737 mmHg 84%
01:00 0°C° 0 mm 1 mps 737 mmHg 83%
02:00 0°C° 0 mm 1 mps 736 mmHg 82%
03:00 0°C° 0 mm 1 mps 736 mmHg 81%
04:00 0°C° 0 mm 1 mps 736 mmHg 81%
05:00 0°C° 0 mm 1 mps 736 mmHg 81%
06:00 0°C° 0 mm 1 mps 736 mmHg 80%
07:00 -2°C° 0 mm 2 mps 736 mmHg 77%
08:00 -1°C° 0 mm 2 mps 736 mmHg 74%
09:00 +1°C° 0 mm 2 mps 736 mmHg 71%
10:00 +1°C° 0 mm 3 mps 736 mmHg 71%
11:00 0°C° 0 mm 4 mps 736 mmHg 71%
12:00 +1°C° 0 mm 5 mps 736 mmHg 70%
13:00 +1°C° 0.2 mm 5 mps 736 mmHg 75%
14:00 -1°C° 0.2 mm 6 mps 736 mmHg 80%
15:00 -1°C° 0.2 mm 7 mps 736 mmHg 85%
16:00 -1°C° 0.2 mm 6 mps 737 mmHg 87%
17:00 -2°C° 0.2 mm 6 mps 737 mmHg 89%
18:00 -2°C° 0.2 mm 6 mps 737 mmHg 90%
19:00 -1°C° 0.1 mm 5 mps 738 mmHg 90%
20:00 -2°C° 0.1 mm 5 mps 739 mmHg 89%
21:00 -2°C° 0.1 mm 4 mps 740 mmHg 88%
22:00 -3°C° 0 mm 4 mps 740 mmHg 85%
23:00 -3°C° 0 mm 4 mps 740 mmHg 82%

10 Marzo, Miércoles

Tiempo Temperatura Precipitaciones Viento Presión Humedad
00:00 -4°C° 0 mm 3 mps 740 mmHg 79%
01:00 -4°C° 0 mm 3 mps 740 mmHg 80%
02:00 -4°C° 0 mm 3 mps 741 mmHg 80%
03:00 -5°C° 0 mm 3 mps 741 mmHg 81%
04:00 -5°C° 0 mm 3 mps 741 mmHg 81%
05:00 -5°C° 0 mm 3 mps 741 mmHg 81%
06:00 -4°C° 0 mm 2 mps 741 mmHg 82%
07:00 -3°C° 0 mm 2 mps 741 mmHg 78%
08:00 -3°C° 0 mm 2 mps 741 mmHg 75%
09:00 -2°C° 0 mm 2 mps 742 mmHg 72%
10:00 -2°C° 0 mm 2 mps 741 mmHg 68%
11:00 -1°C° 0 mm 2 mps 741 mmHg 64%
12:00 -1°C° 0 mm 2 mps 741 mmHg 60%
13:00 +1°C° 0 mm 2 mps 740 mmHg 60%
14:00 +1°C° 0 mm 2 mps 740 mmHg 59%
15:00 +1°C° 0 mm 2 mps 740 mmHg 58%
16:00 +1°C° 0 mm 2 mps 740 mmHg 61%
17:00 -1°C° 0 mm 2 mps 739 mmHg 64%
18:00 -1°C° 0 mm 2 mps 739 mmHg 66%
19:00 -2°C° 0 mm 3 mps 739 mmHg 66%
20:00 -3°C° 0 mm 4 mps 739 mmHg 65%
21:00 -4°C° 0 mm 5 mps 739 mmHg 64%
22:00 -5°C° 0.1 mm 5 mps 739 mmHg 71%
23:00 -5°C° 0.1 mm 6 mps 739 mmHg 78%

11 Marzo, Jueves

Tiempo Temperatura Precipitaciones Viento Presión Humedad
00:00 -6°C° 0.1 mm 6 mps 738 mmHg 84%
01:00 -7°C° 0.2 mm 7 mps 738 mmHg 85%
02:00 -8°C° 0.2 mm 7 mps 738 mmHg 86%
03:00 -8°C° 0.2 mm 8 mps 738 mmHg 88%
04:00 -8°C° 0.2 mm 8 mps 738 mmHg 87%
05:00 -8°C° 0.2 mm 8 mps 738 mmHg 87%
06:00 -10°C° 0.2 mm 8 mps 738 mmHg 87%
07:00 -10°C° 0.3 mm 9 mps 738 mmHg 86%
08:00 -10°C° 0.3 mm 9 mps 738 mmHg 86%
09:00 -10°C° 0.3 mm 9 mps 738 mmHg 85%
10:00 -10°C° 0.2 mm 10 mps 738 mmHg 84%
11:00 -10°C° 0.2 mm 10 mps 738 mmHg 83%
12:00 -10°C° 0.2 mm 10 mps 738 mmHg 82%
13:00 -10°C° 0.2 mm 10 mps 738 mmHg 81%
14:00 -10°C° 0.2 mm 10 mps 738 mmHg 80%
15:00 -11°C° 0.2 mm 9 mps 738 mmHg 79%
16:00 -11°C° 0.2 mm 9 mps 738 mmHg 80%
17:00 -11°C° 0.2 mm 9 mps 739 mmHg 82%
18:00 -12°C° 0.2 mm 8 mps 739 mmHg 84%
19:00 -12°C° 0.2 mm 8 mps 739 mmHg 84%
20:00 -12°C° 0.2 mm 8 mps 740 mmHg 85%
21:00 -13°C° 0.2 mm 8 mps 740 mmHg 85%
22:00 -13°C° 0.2 mm 8 mps 741 mmHg 85%
23:00 -13°C° 0.2 mm 7 mps 741 mmHg 85%

12 Marzo, Viernes

Tiempo Temperatura Precipitaciones Viento Presión Humedad
00:00 -13°C° 0.2 mm 7 mps 741 mmHg 85%
01:00 -13°C° 0.1 mm 7 mps 741 mmHg 85%
02:00 -14°C° 0.1 mm 7 mps 741 mmHg 85%
03:00 -14°C° 0.1 mm 7 mps 742 mmHg 85%
04:00 -14°C° 0 mm 6 mps 742 mmHg 84%
05:00 -14°C° 0 mm 6 mps 743 mmHg 82%
06:00 -14°C° 0 mm 6 mps 743 mmHg 81%
07:00 -14°C° 0 mm 6 mps 744 mmHg 79%
08:00 -14°C° 0 mm 6 mps 744 mmHg 76%
09:00 -13°C° 0 mm 7 mps 744 mmHg 74%
10:00 -13°C° 0 mm 7 mps 744 mmHg 74%
11:00 -11°C° 0 mm 6 mps 744 mmHg 73%
12:00 -10°C° 0 mm 6 mps 744 mmHg 73%
13:00 -10°C° 0 mm 6 mps 743 mmHg 73%
14:00 -9°C° 0 mm 6 mps 743 mmHg 73%
15:00 -9°C° 0 mm 6 mps 743 mmHg 73%
16:00 -9°C° 0 mm 6 mps 743 mmHg 75%
17:00 -10°C° 0 mm 5 mps 743 mmHg 78%
18:00 -11°C° 0 mm 5 mps 743 mmHg 80%
19:00 -11°C° 0 mm 5 mps 744 mmHg 82%
20:00 -12°C° 0 mm 5 mps 744 mmHg 83%
21:00 -12°C° 0 mm 5 mps 744 mmHg 84%
22:00 -12°C° 0 mm 5 mps 743 mmHg 84%
23:00 -13°C° 0 mm 5 mps 743 mmHg 84%
Mostrar más

Necesitamos Su Consentimiento

Meteoprog y nuestros Proveedores de Servicios pueden almacenar y acceder a sus datos personales como cookies, identificadores de dispositivo u otras tecnologías similares de su dispositivo y procesar dichos datos para personalizar contenido y anuncios, además de ofrecer funciones de redes sociales y analizar el tráfico.

  • Almacenar y/o acceder a información en su dispositivo

    Se puede almacenar o acceder a cookies, identificadores de dispositivo u otra información de su dispositivo para los fines anteriormente indicados.

  • Anuncios y contenido personalizados, medición de anuncios y contenido, percepciones del público, y desarrollo de productos

    Los anuncios y el contenido pueden personalizarse en base a su perfil. Se pueden añadir más datos para personalizar mejor los anuncios y contenidos. Se puede medir el rendimiento de los anuncios y contenidos. Se puede obtener la percepción sobre el público que ha visto los anuncios y contenidos. Dichos datos pueden usarse para desarrollar o mejorar la experiencia del usuario, sistemas y software.

Al hacer clic en ‘Estoy De Acuerdo’ usted permitirá el uso de las cookies, identificadores de dispositivo, balizas web u otras tecnologías similares indicadas. Su configuración puede cambiarse desde el navegador de su dispositivo.

Para ciertos fines, los intereses legítimos pueden ser considerados por encima del consentimiento. Puede leer más sobre ello en nuestra Política de Privacidad y Cookies.